Wind_Speed
12 17 28 11 8 14 23 14 27 26 25 29 29 31 17 24 22 23 26 29 30 32 32 29 30 31 30 33 36 40 44 46 45 44 44 44 43 44 44 44 45 46 46 44
8 11 24 25 15 20 9 20 27 26 29 39 29 36 27 15 18 23 26 28 32 32 35 31 32 32 34 39 38 41 44 46 46 48 46 39 38 40 44 47 49 49 46 43
6 9 13 14 15 21 19 19 29 21 22 30 36 40 34 25 25 27 28 32 32 34 38 38 35 34 33 43 37 49 41 45 35 48 50 36 38 41 45 46 47 49 46 41
16 7 18 18 16 25 18 18 27 28 20 19 26 28 36 7 10 33 33 38 38 41 38 40 40 43 41 31 48 23 51 36 33 38 29 30 33 35 34 36 37 43 43 36
14 12 15 16 16 20 26 32 29 23 31 21 24 34 25 33 22 41 41 41 44 41 44 37 41 39 41 41 42 44 49 53 35 54 55 32 38 33 27 33 32 34 34 32
17 15 24 25 20 19 29 27 23 21 32 25 31 36 36 33 26 39 37 43 43 46 45 43 44 41 42 43 41 45 47 47 55 53 53 53 37 35 38 34 36 34 33 34
16 17 27 29 31 10 25 31 30 19 13 26 32 38 16 44 43 30 42 40 45 45 45 44 46 46 47 49 45 42 37 36 37 41 43 48 45 41 39 32 39 38 33 31
19 22 28 26 27 31 27 30 23 26 19 22 20 29 35 25 36 48 33 44 45 43 45 45 44 47 44 38 35 37 38 37 36 41 45 43 41 45 24 41 39 40 34 29
19 23 28 30 24 28 32 27 24 27 24 12 27 36 30 41 21 36 43 46 44 44 47 47 48 43 38 33 36 38 37 38 40 42 46 48 56 42 45 41 40 37 27 27
21 28 20 34 34 34 27 29 24 15 14 15 21 32 36 39 45 46 46 46 48 50 49 50 43 37 32 33 35 39 39 39 40 41 42 46 50 48 45 44 41 40 41 34
29 26 26 26 28 31 33 30 20 25 23 16 18 30 30 37 38 40 43 45 47 48 47 43 35 34 35 38 40 43 42 42 43 43 41 42 43 42 42 43 38 38 37 32
31 26 24 21 32 24 27 20 23 22 18 19 23 31 38 33 38 39 43 42 44 46 44 34 33 36 40 41 44 44 44 43 42 41 39 37 37 37 40 40 36 32 33 28
23 21 21 13 28 26 25 33 26 24 18 15 20 27 32 36 32 36 39 41 44 44 37 32 34 38 43 44 45 46 45 43 42 40 37 35 33 35 37 33 26 21 21 18
21 20 20 18 25 30 27 29 26 23 20 18 21 32 38 37 34 38 40 40 43 40 33 34 38 42 44 46 44 44 44 43 42 40 37 33 31 33 31 22 17 14 18 16
20 19 20 21 21 24 23 25 24 22 22 23 22 31 36 35 36 37 40 41 41 34 32 35 40 43 45 46 46 45 45 44 43 39 36 31 27 26 19 8 9 9 17 16
21 21 19 20 22 18 20 22 20 20 23 24 26 32 30 36 39 36 38 41 36 31 33 37 41 43 45 47 49 48 46 46 43 37 34 28 24 22 12 15 17 12 11 14
21 21 20 21 20 19 22 23 22 20 26 31 30 32 34 34 38 39 39 37 32 30 34 37 41 46 47 49 50 47 47 45 41 36 33 29 23 19 15 16 9 11 13 13
21 19 21 20 21 15 17 22 21 23 27 29 30 33 32 32 37 39 36 34 29 31 35 40 44 47 49 49 46 46 44 43 38 32 30 28 22 19 15 8 10 11 13 10
19 20 22 18 21 18 28 25 21 25 28 30 31 32 33 33 36 40 39 35 31 33 37 41 45 47 48 45 44 44 43 36 34 32 28 26 24 18 17 14 12 15 14 13
18 21 24 17 17 24 25 19 23 31 34 33 34 35 35 34 35 40 39 36 33 34 37 41 44 46 46 43 42 41 39 30 32 34 29 26 24 19 19 18 11 19 15 15
24 19 24 26 19 27 22 32 30 33 37 37 36 36 35 34 35 36 36 31 30 32 37 42 44 45 44 42 40 40 37 32 35 34 31 26 23 20 20 20 19 13 22 22
24 20 28 27 28 27 30 35 33 34 37 37 38 37 36 36 35 36 36 32 30 32 36 42 44 44 43 41 40 39 36 32 36 32 28 26 23 23 21 23 24 14 14 19
23 23 22 30 28 29 33 33 35 38 39 39 39 37 34 34 34 36 36 32 30 31 35 40 43 43 43 41 40 38 33 33 35 31 27 25 26 30 26 23 25 28 19 19
28 25 27 30 33 30 33 34 37 38 39 39 39 36 33 32 34 35 35 31 30 31 34 39 42 42 42 40 40 39 34 35 37 35 29 28 27 27 26 27 25 25 25 20
27 25 28 32 36 35 39 34 37 38 38 38 37 35 32 29 33 33 34 30 29 30 33 38 41 41 42 42 40 39 35 35 39 36 32 28 26 24 21 29 28 27 26 25
22 23 32 35 36 37 40 40 40 39 39 38 35 35 31 30 32 32 32 28 27 28 32 35 38 40 42 44 41 41 38 36 39 37 34 29 24 22 16 30 30 27 32 28
Wind_Direction
357 307 313 327 358 357 321 282 276 264 292 312 302 304 300 301 303 306 319 320 319 317 312 311 310 307 305 305 306 307 305 303 298 296 294 292 293 295 297 300 303 304 304 302
306 313 292 306 354 311 287 300 310 341 330 321 322 314 309 249 313 312 321 322 317 316 312 313 311 309 313 312 315 309 302 298 294 293 292 293 298 302 302 301 301 301 299 296
269 292 283 326 317 277 272 316 320 316 301 320 310 306 293 262 307 335 315 320 318 316 314 314 309 313 320 314 319 311 303 310 302 288 285 290 299 307 305 303 301 298 294 292
265 244 283 302 298 296 315 302 288 310 313 317 302 304 301 223 302 320 319 326 320 317 318 318 319 319 321 311 314 299 320 312 294 280 318 312 303 309 317 311 314 297 291 289
267 282 276 259 283 303 305 301 306 320 326 314 297 300 306 304 307 325 328 323 320 317 315 318 314 313 309 307 308 299 304 298 278 298 296 340 337 325 314 314 319 319 297 301
256 262 282 256 277 300 310 311 316 339 314 312 300 306 298 301 285 314 316 320 318 318 317 316 315 317 311 311 306 298 296 293 298 303 301 313 317 313 311 309 308 305 305 301
299 267 269 271 293 333 302 317 312 308 302 312 304 306 291 292 295 293 305 316 319 316 319 317 316 316 314 312 311 309 307 304 300 300 302 305 307 311 315 311 313 305 294 295
285 287 272 299 315 319 314 311 304 302 296 279 288 272 290 269 311 311 304 314 315 317 314 316 315 315 317 317 314 317 316 311 310 307 302 308 285 308 313 320 309 299 280 297
291 298 307 310 306 305 299 302 304 301 302 325 291 287 290 298 306 306 301 309 314 315 316 319 319 322 321 318 315 317 314 311 307 303 303 304 300 305 304 306 307 291 281 283
302 287 293 297 305 307 318 318 315 317 303 286 300 301 293 298 302 308 309 314 318 320 319 320 321 320 321 320 317 317 315 310 306 303 303 299 301 302 303 302 300 297 287 282
281 289 294 294 301 288 304 311 279 296 302 292 291 297 301 300 301 307 309 314 316 315 317 317 319 317 319 317 316 315 315 312 309 307 303 297 296 294 294 290 290 284 278 266
289 295 289 296 280 301 289 292 306 299 293 290 289 281 289 288 304 307 306 313 313 315 316 318 316 317 320 320 320 319 317 315 310 307 303 297 295 293 296 294 285 277 267 275
297 295 301 312 287 295 295 300 311 311 307 308 300 289 279 294 307 304 310 315 314 317 319 316 316 318 321 322 322 320 319 318 316 312 309 306 303 303 303 296 286 269 261 265
296 296 298 296 276 301 303 298 311 308 304 299 280 288 299 310 310 314 318 319 319 321 320 319 320 321 322 322 322 321 320 320 318 318 314 310 309 314 308 300 276 258 254 254
297 301 304 298 296 290 292 294 299 301 298 302 292 290 303 311 314 319 319 320 322 321 321 320 323 323 324 324 327 326 324 322 321 321 317 313 312 319 321 313 307 282 272 265
307 306 304 296 294 295 293 293 296 297 302 305 305 297 310 313 317 319 320 323 323 321 322 324 323 324 327 330 330 329 327 325 322 320 316 312 309 318 313 320 298 265 275 250
308 309 301 298 307 309 301 306 307 310 313 313 312 309 314 316 316 320 326 321 321 321 323 323 324 327 332 333 331 328 327 323 323 322 317 311 305 308 289 306 287 248 261 238
305 306 304 307 309 313 282 301 303 302 306 307 310 310 312 317 315 319 329 320 318 320 324 329 330 331 334 334 329 328 324 324 326 323 317 312 303 290 283 276 260 236 250 207
310 316 309 307 307 306 296 296 295 300 305 314 309 310 316 320 318 320 327 325 325 328 330 329 330 331 333 332 328 327 324 328 327 326 319 311 307 281 273 255 250 235 231 207
331 319 310 318 305 302 303 256 305 303 305 316 317 316 318 319 319 322 325 324 325 325 326 329 331 332 334 331 330 328 326 325 330 327 321 316 303 291 262 259 248 232 234 224
314 294 305 304 290 311 283 308 301 306 307 312 314 312 315 317 318 319 320 315 312 321 329 331 332 333 335 333 333 330 326 320 325 326 317 310 299 290 263 256 248 237 232 225
303 297 299 304 304 296 293 298 302 300 303 309 311 312 314 315 318 319 320 317 318 326 331 332 334 334 336 335 337 335 329 325 326 322 313 304 295 285 271 250 241 232 226 223
305 273 306 302 301 302 301 300 301 301 305 308 310 312 312 314 320 319 320 319 321 327 331 335 336 336 337 339 340 340 335 333 333 327 318 302 297 282 265 249 234 236 228 223
303 305 301 302 307 309 301 303 300 302 306 308 309 310 311 314 318 318 320 320 321 328 333 337 337 339 341 342 342 344 340 340 340 337 326 318 301 296 248 231 224 223 230 215
299 308 309 306 310 313 307 310 305 306 307 308 308 309 309 315 314 318 322 321 321 329 335 339 339 343 345 345 345 347 345 344 345 343 335 325 308 305 241 215 211 216 221 215
311 311 309 309 314 314 313 314 313 311 312 313 312 314 309 314 314 318 323 322 323 330 337 340 341 345 348 349 346 350 349 346 350 348 341 335 315 294 266 211 207 210 214 215
Height
5901 5898 5895 5900 5898 5897 5901 5900 5893 5883 5887 5885 5875 5867 5867 5862 5859 5856 5853 5850 5847 5844 5843 5841 5836 5832 5830 5824 5820 5814 5809 5803 5797 5791 5787 5781 5778 5776 5773 5771 5767 5763 5761 5758
5906 5907 5902 5902 5897 5900 5898 5891 5887 5883 5876 5876 5873 5865 5856 5843 5854 5854 5851 5848 5844 5841 5837 5835 5830 5826 5822 5817 5813 5806 5798 5792 5785 5780 5776 5772 5770 5768 5765 5761 5758 5756 5752 5749
5904 5907 5902 5901 5901 5895 5892 5888 5885 5884 5884 5876 5871 5862 5856 5847 5848 5848 5848 5845 5840 5837 5831 5828 5825 5821 5816 5811 5805 5795 5784 5781 5775 5767 5760 5761 5762 5760 5756 5754 5749 5744 5742 5739
5902 5903 5901 5901 5899 5892 5888 5889 5883 5880 5876 5874 5868 5865 5850 5822 5840 5847 5845 5836 5834 5830 5826 5819 5815 5811 5808 5803 5800 5794 5780 5775 5765 5755 5757 5755 5753 5749 5747 5743 5738 5735 5732 5730
5901 5900 5898 5897 5896 5890 5888 5884 5879 5876 5871 5869 5863 5859 5851 5846 5834 5837 5833 5831 5829 5825 5820 5818 5810 5808 5802 5799 5795 5785 5776 5771 5760 5755 5755 5744 5744 5740 5738 5735 5729 5726 5724 5722
5893 5896 5893 5889 5888 5884 5881 5878 5874 5872 5869 5865 5859 5853 5848 5843 5839 5836 5834 5830 5825 5820 5815 5810 5804 5801 5795 5789 5785 5777 5771 5765 5756 5750 5746 5739 5734 5731 5729 5726 5724 5720 5718 5716
5890 5889 5884 5883 5877 5880 5878 5874 5869 5869 5867 5863 5855 5850 5839 5835 5835 5831 5829 5825 5822 5816 5811 5804 5796 5790 5782 5777 5775 5770 5762 5757 5753 5746 5739 5731 5727 5724 5722 5721 5716 5711 5709 5708
5889 5886 5879 5880 5875 5875 5874 5871 5869 5862 5863 5860 5857 5844 5840 5833 5831 5830 5824 5821 5818 5812 5804 5799 5791 5783 5777 5770 5765 5761 5757 5752 5747 5739 5732 5728 5705 5716 5709 5709 5707 5702 5700 5698
5884 5882 5874 5872 5875 5874 5869 5866 5862 5857 5855 5853 5847 5840 5836 5831 5826 5827 5821 5816 5810 5804 5796 5790 5783 5777 5771 5765 5759 5755 5750 5745 5740 5733 5725 5718 5710 5708 5704 5700 5697 5692 5692 5691
5881 5877 5877 5866 5867 5864 5862 5859 5855 5853 5850 5849 5846 5835 5830 5828 5823 5818 5811 5808 5800 5793 5787 5780 5775 5769 5765 5760 5754 5748 5743 5737 5730 5724 5719 5709 5700 5695 5693 5689 5686 5683 5683 5683
5873 5873 5873 5869 5865 5860 5858 5854 5851 5847 5846 5844 5840 5830 5824 5824 5820 5816 5808 5803 5796 5788 5781 5774 5768 5762 5758 5753 5747 5740 5735 5728 5721 5715 5708 5702 5695 5690 5685 5682 5677 5674 5673 5674
5865 5866 5863 5864 5853 5855 5851 5850 5847 5844 5842 5838 5836 5829 5822 5819 5817 5812 5804 5799 5791 5782 5775 5768 5761 5756 5750 5745 5738 5731 5724 5718 5711 5704 5698 5692 5687 5682 5676 5670 5668 5666 5665 5666
5861 5860 5857 5859 5849 5849 5848 5843 5841 5838 5836 5833 5829 5823 5816 5817 5813 5807 5800 5792 5783 5776 5767 5761 5756 5750 5744 5737 5729 5721 5714 5707 5699 5692 5685 5680 5675 5670 5664 5658 5656 5656 5658 5660
5857 5855 5853 5852 5848 5843 5841 5837 5836 5833 5831 5828 5824 5816 5810 5808 5805 5797 5791 5785 5776 5767 5760 5755 5749 5744 5736 5728 5722 5713 5704 5696 5688 5681 5675 5670 5665 5660 5653 5649 5649 5650 5651 5654
5852 5850 5847 5845 5844 5841 5838 5835 5831 5829 5825 5824 5821 5814 5806 5802 5797 5792 5784 5777 5769 5761 5755 5750 5744 5736 5729 5721 5712 5704 5694 5686 5679 5672 5666 5661 5658 5653 5648 5645 5645 5646 5647 5647
5848 5844 5842 5840 5838 5836 5833 5830 5827 5824 5821 5818 5814 5807 5804 5796 5789 5786 5779 5770 5762 5755 5750 5744 5737 5730 5722 5713 5703 5694 5685 5677 5671 5665 5659 5654 5652 5649 5646 5644 5642 5642 5643 5645
5844 5840 5839 5836 5833 5831 5828 5825 5822 5820 5815 5811 5808 5802 5796 5791 5784 5777 5771 5763 5756 5750 5745 5739 5731 5722 5713 5705 5695 5686 5678 5670 5663 5658 5652 5649 5647 5646 5643 5641 5639 5641 5642 5643
5839 5838 5835 5832 5829 5827 5823 5819 5818 5815 5811 5807 5802 5795 5791 5787 5778 5771 5766 5757 5751 5745 5739 5731 5723 5715 5706 5698 5688 5680 5671 5663 5657 5652 5647 5643 5641 5640 5639 5638 5637 5637 5639 5640
5837 5834 5830 5827 5824 5823 5817 5816 5815 5811 5807 5803 5796 5790 5785 5780 5772 5764 5758 5750 5744 5738 5731 5726 5718 5709 5701 5692 5682 5673 5665 5658 5651 5646 5641 5637 5635 5634 5632 5632 5633 5634 5636 5637
5829 5830 5826 5821 5819 5818 5813 5799 5810 5805 5799 5795 5790 5784 5778 5773 5766 5757 5751 5743 5737 5733 5728 5721 5712 5703 5695 5685 5676 5667 5658 5652 5646 5639 5635 5631 5628 5627 5625 5626 5628 5630 5632 5634
5830 5827 5824 5819 5804 5811 5807 5807 5805 5800 5796 5789 5784 5778 5772 5766 5761 5754 5746 5740 5735 5729 5721 5714 5705 5696 5688 5679 5670 5660 5652 5645 5640 5633 5627 5623 5621 5621 5619 5619 5621 5624 5627 5630
5826 5822 5820 5817 5813 5811 5807 5802 5800 5794 5788 5783 5777 5771 5765 5760 5754 5748 5741 5734 5728 5722 5715 5708 5700 5691 5682 5674 5664 5655 5646 5639 5633 5625 5620 5615 5613 5612 5612 5612 5615 5616 5621 5623
5821 5817 5814 5812 5809 5805 5800 5796 5791 5786 5781 5775 5769 5764 5759 5753 5748 5741 5735 5728 5722 5716 5710 5703 5695 5686 5677 5667 5658 5648 5639 5632 5625 5617 5611 5606 5603 5601 5601 5603 5606 5608 5611 5617
5813 5813 5811 5807 5802 5801 5794 5791 5785 5780 5774 5768 5762 5757 5752 5746 5741 5735 5728 5722 5717 5711 5704 5698 5690 5681 5671 5661 5652 5643 5633 5626 5617 5609 5602 5596 5591 5587 5586 5593 5597 5601 5604 5610
5810 5808 5806 5800 5796 5792 5786 5785 5778 5772 5767 5761 5754 5750 5744 5739 5734 5728 5722 5716 5711 5706 5700 5693 5685 5676 5667 5656 5647 5638 5628 5620 5611 5601 5593 5585 5579 5575 5573 5580 5587 5593 5597 5603
5806 5804 5801 5795 5790 5786 5778 5773 5769 5763 5758 5752 5747 5742 5737 5731 5728 5722 5716 5711 5706 5701 5695 5689 5681 5672 5663 5652 5643 5634 5624 5615 5606 5596 5586 5578 5571 5567 5566 5571 5578 5585 5590 5596